#timestamp,LO_Frequency,Hit,StdDev 
1507068015.4,286046995.2,N
1507068035.2,286046996.4,N
1507068055.0,286046996.3,N
1507068055.9,286046996.3,N
1507068075.8,286046996.1,N
1507068095.6,286046996.4,N
1507068115.4,286046993.6,Y
1507068135.3,286047002.1,P
1507068155.1,286047001.9,N
1507068156.0,286047001.9,N
1507068175.8,286047001.6,N
1507068195.7,286047000.9,N
1507068215.5,286046998.3,N
1507068235.3,286047000.5,N
1507068255.1,286047000.8,N
1507068275.9,286046999.1,N
1507068295.7,286046999.3,N
1507068315.5,286046998.4,N
1507068335.4,286047001.0,N
1507068355.2,286047000.8,N
1507068375.0,286046999.1,N
1507068375.9,286046999.1,N
1507068395.8,286046999.6,N
1507068415.6,286046997.8,N
1507068435.4,286046999.1,N
1507068455.3,286046996.6,N
1507068475.1,286047002.6,N
1507068476.0,286047002.6,N
1507068495.8,286047001.8,N
1507068515.7,286047001.4,N
1507068535.5,286047002.6,N
1507068555.3,286046999.8,N
1507068575.2,286047002.7,N
1507068595.9,286046996.5,N
1507068615.7,286046996.7,N
1507068635.5,286046998.7,N
1507068655.4,286046998.2,N
1507068675.2,286047000.7,N
1507068695.0,286046998.4,N
1507068695.9,286046998.4,N
1507068715.8,286046999.3,N
1507068735.6,286047001.2,N
1507068755.4,286047002.6,N
1507068775.3,286047004.3,N
1507068795.1,286046999.8,N
1507068796.0,286046999.8,N
1507068815.8,286046999.1,N
1507068835.7,286046999.8,N
1507068855.5,286047006.3,Y
1507068875.3,286047010.7,P
1507068895.2,286047011.1,N
1507068915.9,286047011.5,N
1507068935.7,286047014.1,N
1507068955.6,286047014.4,N
1507068975.4,286047018.0,Y
1507068995.2,286047009.9,P
1507069015.1,286047008.7,P
1507069016.0,286047008.7,P
1507069035.8,286047007.6,Y
1507069055.6,286046996.2,P
1507069075.5,286046992.2,N
1507069095.3,286046994.9,N
1507069115.1,286046996.9,N
1507069135.9,286046994.1,N
1507069155.7,286046995.0,N
1507069175.5,286046993.3,N
1507069195.4,286046993.6,N
1507069215.2,286046998.9,N
1507069235.0,286046994.9,N
1507069235.9,286046994.9,N
1507069255.8,286046995.6,N
1507069275.6,286046992.2,N
1507069295.4,286046993.8,N
1507069315.2,286046994.2,N
1507069335.1,286046994.2,N
1507069336.0,286046994.2,N
1507069355.8,286046997.8,N
1507069375.6,286046996.7,N
1507069395.5,286046997.0,N
1507069415.3,286046999.3,N
1507069435.1,286046998.7,N
1507069455.9,286046999.5,N
1507069475.7,286046996.7,N
1507069495.5,286046997.9,N
1507069515.4,286046997.0,N
1507069535.2,286046997.7,N
1507069555.0,286046995.8,N
1507069555.9,286046995.8,N
1507069575.8,286046992.3,N
1507069595.6,286046993.8,Y
1507069615.4,286046997.7,P
1507069635.3,286046997.4,N
1507069655.1,286046996.6,P
1507069656.0,286046996.6,Y
1507069675.8,286047002.2,P
1507069695.7,286047001.7,N
1507069715.5,286047003.8,N
1507069735.3,286047002.7,N
1507069755.1,286047000.2,N
1507069775.9,286047000.4,N
1507069795.7,286046999.0,N
1507069815.5,286046999.6,N
1507069835.4,286046997.0,N
1507069855.2,286046996.7,N
1507069875.0,286046996.8,N
1507069875.9,286046996.8,N
1507069895.8,286046998.7,N
1507069915.6,286046996.8,N
1507069935.4,286046997.3,N
1507069955.3,286046997.9,N
1507069975.1,286046997.0,N
1507069976.0,286046997.0,N
1507069995.8,286046998.7,N
1507070015.7,286046998.1,N
1507070035.5,286046997.2,N
1507070055.3,286046995.5,N
1507070075.1,286046993.5,N
1507070095.9,286046996.3,N
1507070115.7,286046993.4,N
1507070135.5,286046993.7,N
1507070155.4,286046991.8,Y
1507070175.2,286046994.8,P
1507070195.0,286046995.7,N
1507070195.9,286046995.7,P
1507070215.8,286046996.0,Y
1507070235.6,286047000.9,P
1507070255.4,286046999.8,N
1507070275.3,286046998.3,N
1507070295.1,286046996.8,N
1507070315.8,286046996.2,N
1507070335.7,286046993.8,Y
1507070355.5,286046997.4,P
1507070375.3,286046998.2,P
1507070395.2,286047001.2,P
1507070415.0,286046997.5,N
1507070415.9,286046997.5,N
1507070435.7,286046997.5,N
1507070455.6,286046999.3,N
1507070475.4,286047000.8,N
1507070495.2,286046996.8,N
1507070515.1,286046997.0,N
1507070516.0,286046997.0,N
1507070535.8,286046996.1,N
1507070555.6,286046996.8,N
1507070575.5,286046994.9,Y
1507070595.3,286046995.3,P
1507070615.1,286046995.3,P
1507070635.9,286046993.4,P
1507070655.7,286046996.3,N
1507070675.5,286046997.7,N
1507070695.4,286046995.5,N
1507070715.2,286046993.5,Y
1507070735.0,286046999.5,P
1507070735.9,286046999.5,N
1507070755.8,286046999.7,N
1507070775.6,286047002.4,N
1507070795.4,286047002.1,N
1507070815.2,286047004.5,N
1507070835.1,286047003.2,N
1507070836.0,286047003.2,N
1507070855.8,286046998.8,N
1507070875.6,286046996.6,N
1507070895.5,286046998.8,N
1507070915.3,286046998.6,N
1507070935.1,286046999.2,N
1507070955.9,286046996.6,N
1507070975.7,286047002.4,N
1507070995.5,286046997.8,N
1507071015.4,286046994.6,N
1507071035.2,286047000.9,N
1507071055.0,286047007.2,N
1507071055.9,286047007.2,N
1507071075.8,286047005.0,N
1507071095.6,286047010.8,Y
1507071115.4,286047018.7,P
1507071135.3,286047019.6,N
1507071155.1,286047020.0,N
1507071156.0,286047020.0,N
1507071175.8,286047020.0,N
1507071195.7,286047017.8,N
1507071215.5,286047019.4,N
1507071235.3,286047017.4,N
1507071255.1,286047017.4,N
1507071275.9,286047017.4,Y
1507071295.7,286047002.0,P
1507071315.5,286046999.7,N
1507071335.4,286047002.8,N
1507071355.2,286047002.2,N
1507071375.0,286047001.3,N
1507071375.9,286047001.3,N
1507071395.8,286047004.7,N
1507071415.6,286047003.3,N
1507071435.4,286047005.6,N
1507071455.3,286047007.6,N
1507071475.1,286047001.4,N
1507071476.0,286047001.4,N
1507071495.8,286047004.6,N
1507071515.7,286047003.4,N
1507071535.5,286047002.6,N
1507071555.3,286047000.2,N
1507071575.2,286046998.6,N
1507071595.9,286046998.8,N
